QPF
0.05 0.04 0.03 0.03 0.03 0.01 0.01 0.01 0.01 0.01 0.01 0.01 0.01 0.01 0.01 0.03 0.04 0.10 0.10 0.04 0.03 0.03 0.04 0.06 0.07 0.07 0.08 0.07 0.06 0.06 0.07 0.07 0.08 0.07 0.06 0.08 0.08 0.11 0.17 0.15 0.13 0.11 0.08 0.07 0.06 0.06 0.05 0.07 0.08
0.03 0.03 0.03 0.02 0.01 0.00 0.00 0.00 0.01 0.01 0.01 0.01 0.00 0.00 0.00 0.00 0.01 0.06 0.09 0.08 0.06 0.04 0.04 0.05 0.09 0.11 0.11 0.10 0.08 0.07 0.06 0.08 0.08 0.07 0.06 0.07 0.08 0.10 0.09 0.10 0.10 0.09 0.07 0.05 0.05 0.05 0.05 0.06 0.07
0.02 0.03 0.03 0.01 0.00 0.00 0.00 0.01 0.01 0.01 0.01 0.01 0.00 0.00 0.00 0.00 0.01 0.03 0.06 0.08 0.08 0.05 0.04 0.06 0.10 0.10 0.09 0.09 0.08 0.06 0.06 0.07 0.06 0.08 0.07 0.08 0.08 0.07 0.07 0.08 0.08 0.08 0.07 0.06 0.06 0.06 0.05 0.07 0.08
0.03 0.03 0.02 0.01 0.00 0.01 0.00 0.00 0.01 0.01 0.01 0.00 0.00 0.00 0.00 0.01 0.01 0.02 0.03 0.05 0.04 0.03 0.04 0.05 0.07 0.06 0.05 0.06 0.09 0.07 0.06 0.05 0.05 0.07 0.07 0.07 0.08 0.07 0.08 0.07 0.07 0.09 0.09 0.09 0.09 0.06 0.06 0.06 0.07
0.04 0.03 0.02 0.01 0.01 0.01 0.00 0.00 0.00 0.00 0.01 0.01 0.00 0.00 0.00 0.01 0.03 0.02 0.02 0.02 0.02 0.02 0.03 0.05 0.05 0.04 0.03 0.03 0.07 0.07 0.05 0.05 0.06 0.07 0.09 0.08 0.07 0.08 0.08 0.08 0.08 0.09 0.07 0.08 0.07 0.06 0.06 0.05 0.06
0.03 0.02 0.01 0.00 0.00 0.01 0.00 0.00 0.00 0.00 0.00 0.01 0.00 0.00 0.00 0.01 0.03 0.02 0.01 0.00 0.00 0.01 0.01 0.02 0.03 0.04 0.03 0.03 0.05 0.06 0.06 0.04 0.05 0.07 0.09 0.08 0.07 0.07 0.07 0.07 0.07 0.08 0.09 0.10 0.07 0.06 0.05 0.06 0.06
0.02 0.00 0.00 0.00 0.00 0.00 0.00 0.00 0.00 0.00 0.00 0.00 0.00 0.00 0.01 0.01 0.01 0.01 0.00 0.01 0.01 0.00 0.00 0.00 0.00 0.01 0.02 0.03 0.06 0.06 0.07 0.06 0.04 0.05 0.06 0.07 0.07 0.06 0.05 0.05 0.06 0.08 0.12 0.11 0.08 0.08 0.08 0.08 0.10
0.01 0.00 0.00 0.00 0.00 0.00 0.00 0.01 0.00 0.00 0.00 0.00 0.00 0.00 0.01 0.00 0.00 0.01 0.01 0.01 0.01 0.00 0.00 0.00 0.00 0.01 0.01 0.03 0.05 0.07 0.08 0.06 0.04 0.04 0.05 0.07 0.06 0.05 0.05 0.04 0.05 0.08 0.14 0.21 0.15 0.12 0.10 0.14 0.14
0.01 0.01 0.00 0.00 0.00 0.00 0.00 0.00 0.00 0.00 0.00 0.00 0.00 0.00 0.00 0.00 0.00 0.01 0.01 0.01 0.01 0.01 0.01 0.00 0.00 0.00 0.00 0.01 0.03 0.04 0.04 0.04 0.03 0.02 0.04 0.03 0.01 0.01 0.02 0.04 0.06 0.07 0.14 0.27 0.23 0.18 0.12 0.12 0.13
0.01 0.01 0.00 0.00 0.00 0.00 0.00 0.00 0.00 0.00 0.00 0.00 0.00 0.00 0.01 0.01 0.01 0.01 0.01 0.01 0.01 0.01 0.01 0.01 0.00 0.00 0.00 0.01 0.01 0.00 0.00 0.01 0.01 0.01 0.01 0.01 0.01 0.01 0.01 0.02 0.04 0.06 0.09 0.19 0.24 0.20 0.10 0.05 0.05
0.01 0.01 0.00 0.00 0.00 0.00 0.00 0.00 0.00 0.00 0.00 0.00 0.00 0.01 0.01 0.01 0.01 0.02 0.01 0.01 0.01 0.01 0.01 0.02 0.02 0.01 0.01 0.01 0.01 0.00 0.00 0.00 0.00 0.01 0.01 0.01 0.00 0.00 0.01 0.01 0.01 0.03 0.04 0.05 0.08 0.08 0.05 0.03 0.02
0.02 0.01 0.00 0.00 0.00 0.00 0.00 0.00 0.00 0.00 0.00 0.00 0.00 0.00 0.00 0.00 0.01 0.01 0.01 0.00 0.00 0.00 0.00 0.01 0.01 0.01 0.02 0.02 0.01 0.00 0.00 0.00 0.01 0.01 0.00 0.01 0.01 0.01 0.02 0.01 0.00 0.02 0.04 0.03 0.04 0.03 0.03 0.02 0.02
0.01 0.01 0.00 0.00 0.00 0.00 0.00 0.00 0.00 0.00 0.00 0.00 0.00 0.00 0.00 0.00 0.01 0.01 0.01 0.00 0.01 0.00 0.00 0.00 0.00 0.01 0.02 0.02 0.01 0.00 0.00 0.00 0.00 0.00 0.00 0.01 0.01 0.01 0.02 0.01 0.01 0.02 0.04 0.04 0.03 0.03 0.02 0.01 0.01
0.02 0.01 0.00 0.00 0.00 0.00 0.00 0.00 0.00 0.00 0.00 0.00 0.00 0.00 0.00 0.00 0.00 0.01 0.01 0.01 0.00 0.00 0.00 0.00 0.00 0.01 0.01 0.01 0.01 0.01 0.00 0.00 0.00 0.00 0.00 0.00 0.00 0.01 0.02 0.03 0.02 0.03 0.04 0.05 0.04 0.03 0.02 0.01 0.01
0.02 0.01 0.01 0.00 0.00 0.00 0.00 0.00 0.00 0.00 0.00 0.00 0.00 0.00 0.00 0.00 0.00 0.01 0.01 0.00 0.01 0.01 0.00 0.00 0.01 0.01 0.01 0.01 0.01 0.01 0.01 0.00 0.00 0.00 0.00 0.00 0.00 0.00 0.01 0.02 0.02 0.02 0.04 0.05 0.04 0.03 0.02 0.01 0.02
0.02 0.01 0.01 0.00 0.00 0.00 0.00 0.00 0.00 0.00 0.00 0.00 0.00 0.00 0.00 0.00 0.00 0.00 0.00 0.00 0.01 0.01 0.01 0.01 0.01 0.01 0.02 0.02 0.01 0.01 0.01 0.00 0.00 0.00 0.00 0.00 0.00 0.00 0.00 0.01 0.01 0.02 0.02 0.03 0.03 0.03 0.02 0.03 0.04
0.02 0.02 0.01 0.00 0.00 0.00 0.00 0.00 0.00 0.00 0.00 0.00 0.00 0.00 0.00 0.00 0.00 0.01 0.01 0.01 0.01 0.01 0.01 0.01 0.01 0.01 0.02 0.01 0.01 0.01 0.01 0.00 0.00 0.00 0.00 0.00 0.00 0.00 0.00 0.01 0.01 0.01 0.01 0.02 0.03 0.05 0.05 0.06 0.05
0.01 0.01 0.01 0.00 0.00 0.00 0.00 0.00 0.00 0.00 0.00 0.00 0.00 0.00 0.00 0.00 0.00 0.00 0.01 0.02 0.01 0.01 0.01 0.00 0.01 0.01 0.01 0.00 0.00 0.01 0.01 0.01 0.01 0.01 0.00 0.00 0.00 0.00 0.00 0.00 0.01 0.01 0.01 0.01 0.01 0.02 0.05 0.07 0.07
0.00 0.00 0.01 0.00 0.00 0.00 0.00 0.00 0.00 0.00 0.00 0.00 0.00 0.00 0.00 0.00 0.00 0.00 0.01 0.01 0.01 0.01 0.01 0.00 0.00 0.01 0.01 0.00 0.01 0.01 0.01 0.01 0.01 0.01 0.01 0.01 0.01 0.01 0.01 0.01 0.01 0.01 0.00 0.00 0.00 0.00 0.02 0.04 0.05
0.00 0.00 0.01 0.01 0.00 0.00 0.00 0.00 0.00 0.00 0.00 0.00 0.00 0.00 0.00 0.00 0.01 0.00 0.00 0.00 0.01 0.01 0.00 0.00 0.01 0.01 0.01 0.01 0.01 0.01 0.00 0.00 0.00 0.00 0.00 0.01 0.01 0.01 0.01 0.02 0.02 0.01 0.00 0.00 0.00 0.00 0.01 0.02 0.04
0.00 0.00 0.01 0.01 0.01 0.00 0.00 0.00 0.00 0.00 0.00 0.00 0.00 0.00 0.00 0.00 0.00 0.00 0.00 0.00 0.01 0.01 0.00 0.01 0.01 0.01 0.00 0.00 0.00 0.00 0.00 0.00 0.00 0.00 0.00 0.00 0.00 0.01 0.02 0.01 0.02 0.01 0.00 0.01 0.01 0.00 0.00 0.00 0.01
0.00 0.00 0.01 0.00 0.00 0.00 0.00 0.00 0.00 0.00 0.00 0.00 0.00 0.00 0.00 0.00 0.00 0.00 0.00 0.01 0.01 0.01 0.01 0.01 0.01 0.00 0.00 0.00 0.00 0.00 0.00 0.00 0.00 0.00 0.00 0.00 0.00 0.00 0.00 0.01 0.02 0.01 0.01 0.01 0.01 0.01 0.00 0.00 0.00
0.00 0.00 0.01 0.01 0.00 0.00 0.00 0.00 0.00 0.00 0.00 0.00 0.00 0.00 0.00 0.00 0.00 0.00 0.02 0.01 0.01 0.01 0.01 0.01 0.01 0.00 0.00 0.00 0.00 0.00 0.00 0.00 0.00 0.00 0.00 0.00 0.00 0.00 0.00 0.00 0.02 0.02 0.01 0.02 0.02 0.01 0.01 0.01 0.00
0.00 0.00 0.01 0.02 0.01 0.01 0.01 0.00 0.00 0.00 0.00 0.00 0.00 0.00 0.00 0.00 0.00 0.01 0.02 0.02 0.01 0.01 0.01 0.01 0.01 0.01 0.01 0.00 0.00 0.00 0.00 0.00 0.00 0.00 0.00 0.00 0.00 0.00 0.00 0.01 0.01 0.01 0.02 0.03 0.02 0.02 0.02 0.02 0.00
0.01 0.01 0.01 0.02 0.02 0.01 0.01 0.01 0.00 0.00 0.00 0.00 0.00 0.00 0.00 0.00 0.01 0.01 0.01 0.01 0.01 0.01 0.01 0.01 0.02 0.02 0.02 0.00 0.00 0.00 0.00 0.00 0.00 0.00 0.00 0.00 0.01 0.01 0.00 0.00 0.01 0.01 0.01 0.03 0.03 0.02 0.03 0.02 0.00
0.01 0.01 0.01 0.01 0.01 0.00 0.00 0.00 0.00 0.00 0.00 0.00 0.00 0.00 0.00 0.00 0.00 0.01 0.01 0.00 0.00 0.01 0.01 0.01 0.02 0.02 0.02 0.01 0.01 0.01 0.01 0.00 0.00 0.00 0.00 0.00 0.01 0.01 0.01 0.01 0.01 0.01 0.01 0.03 0.04 0.04 0.03 0.02 0.00
0.01 0.01 0.01 0.00 0.00 0.00 0.00 0.00 0.00 0.00 0.00 0.00 0.00 0.00 0.00 0.00 0.01 0.01 0.01 0.01 0.00 0.01 0.01 0.01 0.02 0.02 0.03 0.02 0.01 0.01 0.01 0.00 0.00 0.00 0.00 0.00 0.00 0.02 0.02 0.01 0.01 0.01 0.02 0.02 0.04 0.05 0.04 0.01 0.00
0.01 0.01 0.01 0.00 0.00 0.00 0.00 0.00 0.00 0.00 0.00 0.00 0.00 0.00 0.00 0.00 0.01 0.01 0.01 0.01 0.00 0.00 0.01 0.01 0.01 0.02 0.03 0.03 0.03 0.02 0.01 0.01 0.00 0.00 0.00 0.00 0.00 0.01 0.03 0.03 0.02 0.01 0.02 0.02 0.04 0.05 0.03 0.01 0.01
0.01 0.01 0.00 0.01 0.00 0.00 0.00 0.00 0.00 0.00 0.00 0.00 0.00 0.00 0.00 0.00 0.00 0.01 0.01 0.00 0.00 0.00 0.00 0.01 0.01 0.02 0.02 0.04 0.06 0.05 0.03 0.01 0.01 0.01 0.00 0.00 0.00 0.01 0.02 0.04 0.03 0.03 0.03 0.03 0.04 0.04 0.02 0.01 0.01
0.01 0.01 0.01 0.01 0.01 0.00 0.00 0.00 0.00 0.00 0.00 0.01 0.00 0.00 0.01 0.01 0.01 0.01 0.01 0.00 0.00 0.00 0.00 0.01 0.01 0.02 0.02 0.02 0.04 0.04 0.05 0.04 0.02 0.01 0.01 0.01 0.01 0.02 0.03 0.05 0.04 0.04 0.04 0.04 0.03 0.03 0.01 0.01 0.01
MSLP
1009.29 1010.50 1011.95 1013.46 1014.86 1016.00 1016.77 1017.14 1017.14 1016.88 1016.47 1016.04 1015.66 1015.35 1015.11 1014.87 1014.57 1014.18 1013.67 1013.08 1012.47 1011.92 1011.48 1011.21 1011.11 1011.14 1011.24 1011.34 1011.37 1011.29 1011.11 1010.84 1010.54 1010.26 1010.06 1009.96 1009.98 1010.10 1010.29 1010.51 1010.72 1010.89 1011.00 1011.05 1011.04 1011.01 1010.96 1010.93 1010.93
1010.03 1011.43 1012.98 1014.51 1015.82 1016.78 1017.30 1017.38 1017.10 1016.56 1015.92 1015.31 1014.80 1014.43 1014.17 1013.96 1013.71 1013.39 1012.96 1012.45 1011.92 1011.45 1011.09 1010.89 1010.87 1010.96 1011.12 1011.27 1011.34 1011.29 1011.12 1010.84 1010.52 1010.22 1009.98 1009.85 1009.84 1009.93 1010.11 1010.31 1010.51 1010.67 1010.76 1010.80 1010.78 1010.73 1010.67 1010.65 1010.67
1010.93 1012.45 1014.04 1015.50 1016.66 1017.40 1017.67 1017.48 1016.93 1016.17 1015.36 1014.63 1014.05 1013.64 1013.37 1013.18 1012.97 1012.69 1012.32 1011.88 1011.42 1011.02 1010.74 1010.61 1010.65 1010.82 1011.03 1011.23 1011.33 1011.31 1011.15 1010.87 1010.53 1010.20 1009.92 1009.75 1009.69 1009.73 1009.86 1010.02 1010.19 1010.32 1010.39 1010.42 1010.40 1010.37 1010.34 1010.36 1010.44
1011.93 1013.49 1015.03 1016.36 1017.33 1017.84 1017.86 1017.45 1016.71 1015.81 1014.91 1014.11 1013.51 1013.10 1012.83 1012.64 1012.45 1012.19 1011.85 1011.45 1011.04 1010.71 1010.49 1010.43 1010.53 1010.75 1011.00 1011.23 1011.35 1011.34 1011.19 1010.90 1010.55 1010.19 1009.88 1009.66 1009.55 1009.53 1009.60 1009.71 1009.82 1009.92 1009.98 1010.00 1010.01 1010.01 1010.04 1010.13 1010.29
1012.90 1014.43 1015.86 1017.02 1017.77 1018.06 1017.88 1017.31 1016.47 1015.52 1014.60 1013.83 1013.24 1012.85 1012.60 1012.41 1012.21 1011.95 1011.61 1011.23 1010.86 1010.57 1010.41 1010.40 1010.54 1010.79 1011.06 1011.29 1011.41 1011.39 1011.22 1010.93 1010.57 1010.19 1009.86 1009.61 1009.45 1009.39 1009.39 1009.44 1009.51 1009.56 1009.60 1009.64 1009.67 1009.73 1009.83 1010.00 1010.24
1013.73 1015.17 1016.43 1017.38 1017.92 1018.02 1017.69 1017.04 1016.19 1015.29 1014.44 1013.75 1013.24 1012.90 1012.66 1012.46 1012.24 1011.96 1011.61 1011.23 1010.89 1010.63 1010.51 1010.54 1010.71 1010.96 1011.22 1011.42 1011.51 1011.46 1011.26 1010.96 1010.59 1010.21 1009.88 1009.62 1009.44 1009.34 1009.30 1009.30 1009.31 1009.34 1009.36 1009.40 1009.47 1009.58 1009.75 1009.99 1010.28
1014.34 1015.63 1016.69 1017.42 1017.75 1017.70 1017.30 1016.65 1015.87 1015.07 1014.37 1013.82 1013.41 1013.13 1012.92 1012.72 1012.47 1012.15 1011.79 1011.41 1011.09 1010.87 1010.79 1010.84 1011.01 1011.24 1011.47 1011.61 1011.64 1011.54 1011.31 1010.99 1010.63 1010.27 1009.97 1009.72 1009.55 1009.44 1009.38 1009.34 1009.31 1009.29 1009.30 1009.34 1009.43 1009.59 1009.81 1010.10 1010.42
1014.68 1015.79 1016.62 1017.14 1017.30 1017.13 1016.70 1016.11 1015.45 1014.83 1014.31 1013.92 1013.64 1013.44 1013.25 1013.04 1012.76 1012.42 1012.05 1011.69 1011.39 1011.21 1011.16 1011.25 1011.42 1011.62 1011.78 1011.86 1011.82 1011.66 1011.39 1011.05 1010.71 1010.39 1010.13 1009.93 1009.79 1009.69 1009.62 1009.55 1009.49 1009.44 1009.42 1009.46 1009.57 1009.75 1010.00 1010.31 1010.63
1014.79 1015.68 1016.30 1016.61 1016.62 1016.38 1015.96 1015.46 1014.96 1014.52 1014.20 1013.97 1013.82 1013.69 1013.53 1013.31 1013.02 1012.67 1012.29 1011.96 1011.70 1011.57 1011.57 1011.68 1011.85 1012.02 1012.13 1012.14 1012.03 1011.80 1011.50 1011.16 1010.84 1010.57 1010.37 1010.23 1010.14 1010.07 1010.00 1009.92 1009.83 1009.75 1009.72 1009.75 1009.86 1010.05 1010.31 1010.61 1010.91
1014.73 1015.41 1015.82 1015.94 1015.83 1015.55 1015.16 1014.76 1014.42 1014.16 1014.01 1013.93 1013.88 1013.82 1013.69 1013.47 1013.17 1012.82 1012.46 1012.16 1011.96 1011.89 1011.94 1012.08 1012.26 1012.41 1012.47 1012.42 1012.25 1011.98 1011.65 1011.31 1011.03 1010.81 1010.67 1010.59 1010.55 1010.52 1010.46 1010.38 1010.28 1010.18 1010.13 1010.15 1010.26 1010.46 1010.72 1011.01 1011.27
1014.60 1015.09 1015.30 1015.28 1015.07 1014.76 1014.42 1014.11 1013.90 1013.79 1013.78 1013.81 1013.84 1013.82 1013.71 1013.50 1013.20 1012.86 1012.53 1012.27 1012.13 1012.12 1012.23 1012.41 1012.60 1012.74 1012.77 1012.68 1012.47 1012.18 1011.84 1011.52 1011.26 1011.09 1011.00 1010.99 1010.99 1010.99 1010.96 1010.88 1010.77 1010.67 1010.62 1010.64 1010.76 1010.96 1011.22 1011.49 1011.71
1014.50 1014.82 1014.88 1014.75 1014.48 1014.15 1013.84 1013.62 1013.50 1013.49 1013.57 1013.67 1013.75 1013.75 1013.65 1013.44 1013.15 1012.83 1012.53 1012.32 1012.23 1012.27 1012.42 1012.63 1012.83 1012.98 1013.01 1012.91 1012.69 1012.39 1012.05 1011.75 1011.52 1011.39 1011.35 1011.37 1011.41 1011.44 1011.42 1011.36 1011.27 1011.18 1011.14 1011.18 1011.31 1011.52 1011.79 1012.05 1012.25
1014.50 1014.69 1014.65 1014.43 1014.12 1013.80 1013.52 1013.35 1013.28 1013.34 1013.45 1013.59 1013.68 1013.69 1013.60 1013.39 1013.12 1012.81 1012.55 1012.37 1012.31 1012.37 1012.54 1012.76 1012.98 1013.13 1013.17 1013.08 1012.88 1012.60 1012.29 1012.02 1011.81 1011.70 1011.68 1011.72 1011.78 1011.82 1011.82 1011.78 1011.71 1011.66 1011.65 1011.72 1011.89 1012.12 1012.40 1012.67 1012.86
1014.64 1014.74 1014.63 1014.38 1014.06 1013.75 1013.49 1013.34 1013.30 1013.36 1013.48 1013.61 1013.70 1013.71 1013.62 1013.43 1013.17 1012.90 1012.65 1012.48 1012.42 1012.48 1012.64 1012.86 1013.07 1013.23 1013.29 1013.23 1013.06 1012.82 1012.55 1012.31 1012.12 1012.02 1011.99 1012.03 1012.08 1012.13 1012.15 1012.14 1012.11 1012.10 1012.14 1012.26 1012.46 1012.73 1013.03 1013.30 1013.49
1014.90 1014.94 1014.81 1014.55 1014.25 1013.95 1013.72 1013.57 1013.53 1013.56 1013.65 1013.75 1013.82 1013.83 1013.75 1013.59 1013.37 1013.12 1012.89 1012.72 1012.64 1012.66 1012.78 1012.95 1013.14 1013.30 1013.38 1013.36 1013.25 1013.06 1012.84 1012.62 1012.45 1012.34 1012.30 1012.31 1012.35 1012.39 1012.43 1012.44 1012.46 1012.51 1012.60 1012.77 1013.01 1013.30 1013.61 1013.88 1014.08
1015.22 1015.23 1015.10 1014.87 1014.60 1014.34 1014.12 1013.96 1013.88 1013.87 1013.90 1013.96 1014.01 1014.02 1013.98 1013.87 1013.70 1013.49 1013.28 1013.10 1012.97 1012.94 1012.98 1013.09 1013.23 1013.37 1013.47 1013.50 1013.45 1013.33 1013.16 1012.97 1012.81 1012.68 1012.61 1012.58 1012.59 1012.63 1012.67 1012.72 1012.79 1012.89 1013.03 1013.24 1013.50 1013.80 1014.10 1014.37 1014.56
1015.53 1015.54 1015.43 1015.25 1015.03 1014.81 1014.60 1014.42 1014.28 1014.19 1014.16 1014.16 1014.19 1014.22 1014.23 1014.19 1014.10 1013.95 1013.77 1013.58 1013.42 1013.30 1013.26 1013.29 1013.37 1013.49 1013.59 1013.66 1013.67 1013.62 1013.51 1013.36 1013.20 1013.05 1012.94 1012.87 1012.85 1012.87 1012.92 1013.00 1013.11 1013.25 1013.43 1013.66 1013.92 1014.21 1014.48 1014.72 1014.89
1015.76 1015.78 1015.72 1015.62 1015.47 1015.29 1015.08 1014.86 1014.64 1014.47 1014.34 1014.28 1014.28 1014.34 1014.41 1014.47 1014.47 1014.42 1014.29 1014.11 1013.91 1013.73 1013.60 1013.54 1013.56 1013.64 1013.75 1013.86 1013.93 1013.94 1013.88 1013.77 1013.61 1013.45 1013.31 1013.20 1013.14 1013.14 1013.19 1013.29 1013.43 1013.60 1013.81 1014.03 1014.27 1014.52 1014.74 1014.92 1015.05
1015.87 1015.93 1015.95 1015.94 1015.87 1015.73 1015.52 1015.24 1014.93 1014.63 1014.39 1014.25 1014.22 1014.30 1014.44 1014.61 1014.74 1014.80 1014.75 1014.61 1014.40 1014.17 1013.97 1013.83 1013.78 1013.82 1013.93 1014.06 1014.18 1014.25 1014.25 1014.17 1014.03 1013.86 1013.69 1013.55 1013.46 1013.44 1013.49 1013.60 1013.76 1013.95 1014.15 1014.36 1014.56 1014.74 1014.89 1015.01 1015.09
1015.87 1015.99 1016.12 1016.22 1016.24 1016.15 1015.92 1015.57 1015.14 1014.70 1014.32 1014.08 1013.99 1014.08 1014.29 1014.57 1014.84 1015.03 1015.09 1015.01 1014.83 1014.57 1014.31 1014.11 1014.00 1014.00 1014.10 1014.25 1014.42 1014.54 1014.59 1014.55 1014.42 1014.25 1014.06 1013.89 1013.78 1013.75 1013.79 1013.91 1014.08 1014.27 1014.47 1014.64 1014.79 1014.91 1014.98 1015.03 1015.05
1015.77 1016.00 1016.27 1016.51 1016.64 1016.59 1016.34 1015.91 1015.33 1014.72 1014.18 1013.80 1013.63 1013.70 1013.96 1014.34 1014.75 1015.07 1015.26 1015.27 1015.13 1014.88 1014.60 1014.35 1014.19 1014.16 1014.24 1014.41 1014.60 1014.76 1014.85 1014.84 1014.74 1014.57 1014.37 1014.19 1014.07 1014.03 1014.07 1014.19 1014.37 1014.56 1014.74 1014.89 1014.99 1015.04 1015.05 1015.03 1015.01
1015.64 1016.02 1016.46 1016.86 1017.10 1017.11 1016.83 1016.29 1015.57 1014.77 1014.04 1013.50 1013.22 1013.24 1013.53 1013.98 1014.50 1014.96 1015.27 1015.39 1015.31 1015.10 1014.81 1014.53 1014.34 1014.27 1014.34 1014.50 1014.70 1014.89 1015.01 1015.03 1014.95 1014.79 1014.59 1014.41 1014.28 1014.23 1014.28 1014.41 1014.59 1014.78 1014.95 1015.07 1015.14 1015.15 1015.11 1015.06 1015.01
1015.55 1016.11 1016.74 1017.30 1017.66 1017.71 1017.41 1016.77 1015.89 1014.90 1013.97 1013.25 1012.85 1012.80 1013.07 1013.57 1014.17 1014.74 1015.17 1015.39 1015.39 1015.21 1014.94 1014.65 1014.44 1014.34 1014.38 1014.53 1014.73 1014.93 1015.07 1015.11 1015.04 1014.89 1014.70 1014.51 1014.38 1014.34 1014.39 1014.52 1014.70 1014.90 1015.07 1015.19 1015.24 1015.24 1015.19 1015.11 1015.05
1015.54 1016.29 1017.10 1017.82 1018.29 1018.39 1018.06 1017.32 1016.29 1015.12 1014.00 1013.11 1012.57 1012.43 1012.66 1013.17 1013.83 1014.48 1015.00 1015.31 1015.39 1015.26 1015.01 1014.73 1014.50 1014.38 1014.39 1014.51 1014.70 1014.89 1015.03 1015.08 1015.02 1014.88 1014.69 1014.51 1014.38 1014.33 1014.37 1014.51 1014.69 1014.89 1015.07 1015.20 1015.27 1015.27 1015.22 1015.16 1015.11
1015.61 1016.54 1017.52 1018.38 1018.94 1019.06 1018.70 1017.88 1016.72 1015.40 1014.12 1013.08 1012.42 1012.19 1012.36 1012.86 1013.54 1014.24 1014.83 1015.20 1015.34 1015.27 1015.05 1014.78 1014.54 1014.41 1014.39 1014.49 1014.65 1014.83 1014.95 1014.99 1014.94 1014.79 1014.60 1014.42 1014.27 1014.22 1014.25 1014.37 1014.55 1014.76 1014.95 1015.09 1015.17 1015.20 1015.18 1015.15 1015.12
1015.77 1016.84 1017.94 1018.88 1019.49 1019.61 1019.21 1018.33 1017.08 1015.65 1014.26 1013.12 1012.36 1012.06 1012.18 1012.65 1013.33 1014.05 1014.67 1015.10 1015.29 1015.26 1015.08 1014.83 1014.60 1014.46 1014.42 1014.49 1014.63 1014.77 1014.88 1014.91 1014.84 1014.69 1014.49 1014.28 1014.13 1014.04 1014.06 1014.15 1014.32 1014.51 1014.69 1014.84 1014.95 1015.00 1015.01 1015.00 1015.00
1015.98 1017.13 1018.28 1019.24 1019.83 1019.93 1019.49 1018.55 1017.25 1015.77 1014.34 1013.15 1012.35 1012.00 1012.09 1012.54 1013.20 1013.92 1014.55 1015.01 1015.24 1015.26 1015.12 1014.90 1014.69 1014.55 1014.51 1014.56 1014.67 1014.79 1014.87 1014.88 1014.79 1014.62 1014.40 1014.18 1013.99 1013.87 1013.84 1013.90 1014.03 1014.19 1014.35 1014.49 1014.60 1014.66 1014.69 1014.71 1014.72
1016.20 1017.35 1018.46 1019.37 1019.89 1019.93 1019.43 1018.47 1017.15 1015.68 1014.27 1013.10 1012.31 1011.97 1012.05 1012.47 1013.12 1013.82 1014.46 1014.93 1015.19 1015.25 1015.16 1014.99 1014.82 1014.70 1014.67 1014.71 1014.80 1014.91 1014.96 1014.95 1014.84 1014.64 1014.40 1014.15 1013.93 1013.76 1013.68 1013.68 1013.75 1013.86 1013.98 1014.09 1014.17 1014.23 1014.26 1014.28 1014.29
1016.40 1017.46 1018.45 1019.22 1019.62 1019.55 1019.00 1018.02 1016.74 1015.34 1014.01 1012.92 1012.21 1011.91 1012.01 1012.43 1013.05 1013.74 1014.36 1014.83 1015.12 1015.22 1015.19 1015.08 1014.96 1014.89 1014.89 1014.95 1015.04 1015.13 1015.17 1015.13 1015.01 1014.80 1014.54 1014.26 1013.99 1013.78 1013.64 1013.58 1013.57 1013.60 1013.66 1013.71 1013.75 1013.77 1013.77 1013.77 1013.77
1016.54 1017.43 1018.24 1018.82 1019.04 1018.85 1018.23 1017.26 1016.04 1014.75 1013.56 1012.61 1012.01 1011.79 1011.93 1012.36 1012.97 1013.63 1014.23 1014.71 1015.01 1015.16 1015.19 1015.16 1015.11 1015.10 1015.15 1015.23 1015.34 1015.43 1015.47 1015.43 1015.29 1015.07 1014.80 1014.50 1014.21 1013.96 1013.76 1013.63 1013.55 1013.50 1013.47 1013.45 1013.43 1013.39 1013.34 1013.30 1013.25
Thickness
5795 5794 5790 5777 5751 5729 5723 5732 5738 5739 5740 5747 5749 5745 5739 5734 5730 5726 5746 5754 5755 5755 5756 5756 5757 5756 5756 5755 5756 5756 5756 5756 5756 5756 5756 5756 5756 5757 5757 5758 5758 5758 5758 5759 5759 5760 5760 5760 5760
5795 5792 5781 5761 5733 5714 5719 5733 5736 5741 5746 5749 5749 5745 5740 5737 5743 5743 5748 5753 5754 5754 5754 5754 5754 5754 5753 5753 5753 5753 5753 5753 5753 5753 5753 5753 5753 5754 5754 5754 5754 5755 5755 5755 5756 5756 5756 5757 5757
5794 5789 5767 5745 5726 5717 5723 5736 5739 5746 5750 5749 5744 5744 5740 5738 5744 5746 5750 5753 5752 5751 5751 5751 5752 5751 5751 5750 5750 5750 5750 5750 5750 5750 5750 5751 5751 5751 5751 5751 5751 5751 5752 5752 5752 5752 5752 5753 5753
5788 5773 5758 5736 5725 5730 5735 5740 5744 5744 5746 5747 5743 5737 5741 5748 5748 5750 5752 5752 5750 5749 5749 5749 5749 5749 5748 5748 5747 5747 5747 5747 5747 5747 5748 5748 5748 5748 5748 5747 5748 5748 5748 5748 5748 5748 5748 5749 5749
5780 5759 5738 5725 5728 5736 5742 5746 5747 5742 5740 5742 5740 5733 5735 5747 5752 5751 5751 5750 5748 5747 5747 5747 5747 5746 5745 5745 5744 5744 5744 5744 5744 5744 5744 5744 5744 5744 5744 5744 5744 5744 5745 5745 5744 5744 5745 5745 5745
5763 5748 5724 5717 5725 5736 5742 5747 5746 5741 5740 5741 5738 5732 5734 5746 5748 5748 5749 5747 5746 5745 5744 5744 5743 5743 5742 5742 5741 5741 5741 5741 5741 5741 5740 5740 5740 5740 5740 5740 5740 5741 5741 5741 5741 5741 5741 5741 5742
5755 5738 5724 5722 5723 5731 5741 5748 5742 5739 5737 5739 5740 5730 5734 5741 5746 5747 5746 5745 5744 5743 5742 5741 5740 5739 5739 5739 5738 5738 5737 5737 5737 5737 5737 5736 5736 5736 5736 5736 5736 5737 5737 5737 5738 5738 5738 5737 5737
5761 5740 5726 5723 5724 5729 5743 5746 5746 5742 5739 5746 5743 5730 5730 5740 5745 5745 5743 5742 5741 5740 5739 5738 5737 5736 5736 5735 5735 5734 5734 5733 5733 5733 5733 5732 5732 5731 5731 5732 5733 5733 5733 5734 5736 5736 5734 5734 5733
5764 5733 5720 5726 5728 5733 5744 5742 5745 5749 5743 5743 5743 5741 5742 5745 5744 5740 5737 5736 5736 5736 5736 5736 5735 5734 5733 5732 5732 5731 5730 5729 5729 5728 5728 5728 5727 5727 5727 5728 5729 5729 5730 5730 5732 5731 5729 5729 5728
5752 5727 5731 5740 5740 5740 5742 5741 5742 5740 5736 5735 5738 5741 5744 5742 5739 5735 5732 5731 5731 5732 5733 5733 5732 5731 5730 5730 5728 5728 5727 5726 5725 5725 5724 5724 5723 5723 5723 5723 5724 5724 5724 5724 5724 5723 5722 5722 5722
5750 5737 5742 5746 5748 5746 5742 5741 5743 5736 5730 5734 5735 5736 5738 5737 5735 5733 5732 5731 5731 5731 5731 5731 5730 5729 5728 5726 5725 5724 5724 5723 5722 5722 5721 5720 5720 5719 5719 5719 5719 5719 5719 5718 5718 5718 5717 5717 5717
5748 5746 5748 5748 5751 5747 5743 5741 5739 5737 5737 5744 5743 5741 5738 5734 5733 5732 5731 5730 5730 5730 5730 5730 5729 5727 5726 5724 5723 5721 5721 5720 5719 5719 5718 5717 5716 5715 5714 5714 5714 5714 5713 5713 5712 5712 5712 5712 5712
5746 5746 5750 5751 5750 5747 5744 5739 5737 5737 5743 5744 5742 5738 5735 5733 5733 5733 5733 5732 5730 5729 5729 5728 5727 5725 5724 5722 5721 5719 5718 5717 5716 5716 5715 5714 5713 5711 5710 5710 5709 5709 5708 5708 5707 5707 5707 5707 5706
5748 5746 5746 5747 5746 5745 5739 5737 5736 5736 5742 5739 5736 5734 5734 5733 5732 5731 5731 5729 5728 5728 5727 5727 5725 5724 5722 5720 5718 5717 5716 5715 5714 5713 5712 5711 5710 5708 5707 5706 5705 5705 5704 5704 5703 5702 5702 5701 5701
5750 5740 5737 5741 5741 5741 5738 5727 5731 5738 5738 5734 5732 5731 5731 5731 5731 5730 5731 5730 5728 5727 5727 5725 5724 5722 5720 5718 5716 5715 5714 5713 5712 5710 5709 5708 5707 5705 5704 5702 5701 5701 5700 5700 5699 5698 5697 5696 5695
5741 5727 5718 5731 5737 5739 5730 5713 5731 5738 5734 5729 5728 5727 5728 5729 5730 5731 5731 5730 5729 5727 5725 5724 5724 5721 5718 5716 5714 5713 5711 5710 5709 5708 5707 5705 5704 5703 5701 5699 5698 5697 5696 5696 5695 5693 5692 5690 5689
5721 5711 5712 5722 5735 5734 5726 5716 5731 5736 5732 5727 5726 5725 5725 5726 5728 5730 5730 5729 5728 5726 5724 5722 5721 5719 5716 5714 5712 5710 5709 5707 5706 5705 5704 5703 5701 5700 5698 5696 5694 5694 5693 5692 5691 5688 5687 5685 5684
5711 5711 5713 5715 5728 5727 5719 5718 5728 5732 5730 5726 5725 5724 5723 5724 5727 5730 5730 5729 5727 5725 5723 5721 5719 5717 5714 5712 5709 5707 5706 5704 5704 5703 5701 5700 5699 5697 5695 5693 5691 5690 5689 5687 5686 5684 5683 5681 5680
5723 5716 5712 5718 5730 5723 5717 5717 5724 5728 5727 5724 5722 5722 5722 5724 5728 5729 5729 5728 5726 5723 5721 5719 5716 5714 5712 5709 5706 5703 5701 5700 5700 5699 5698 5697 5696 5694 5692 5690 5688 5687 5685 5683 5681 5680 5678 5676 5676
5722 5713 5712 5719 5728 5723 5715 5716 5723 5726 5725 5726 5724 5722 5722 5723 5725 5726 5726 5725 5723 5721 5719 5717 5715 5713 5711 5708 5705 5702 5699 5698 5697 5696 5695 5693 5692 5691 5689 5687 5685 5683 5681 5679 5678 5677 5674 5673 5672
5719 5714 5714 5714 5720 5720 5714 5708 5716 5723 5727 5728 5727 5726 5725 5724 5723 5723 5722 5722 5721 5719 5718 5717 5713 5711 5709 5707 5704 5700 5697 5695 5693 5691 5690 5690 5689 5687 5686 5684 5682 5680 5679 5676 5675 5674 5672 5669 5668
5712 5725 5722 5717 5706 5697 5704 5685 5706 5714 5718 5722 5723 5722 5723 5724 5724 5722 5721 5720 5719 5718 5717 5715 5712 5709 5707 5705 5702 5698 5693 5689 5689 5688 5687 5687 5686 5684 5683 5681 5679 5677 5675 5674 5672 5671 5669 5668 5665
5722 5728 5720 5713 5703 5693 5695 5686 5695 5709 5710 5716 5720 5722 5723 5723 5722 5720 5719 5719 5719 5717 5715 5713 5710 5707 5705 5703 5700 5696 5692 5689 5687 5686 5684 5683 5682 5681 5680 5678 5676 5674 5673 5671 5670 5668 5667 5666 5664
5727 5717 5707 5696 5689 5678 5688 5682 5686 5700 5710 5717 5721 5722 5722 5722 5721 5719 5718 5717 5715 5714 5712 5710 5707 5704 5702 5700 5697 5694 5691 5688 5685 5683 5681 5679 5678 5678 5677 5676 5674 5672 5670 5669 5667 5666 5665 5663 5662
5716 5696 5676 5673 5666 5670 5688 5683 5689 5713 5719 5721 5721 5721 5721 5720 5718 5716 5714 5712 5711 5709 5707 5706 5703 5700 5699 5697 5694 5692 5689 5686 5684 5681 5679 5677 5675 5674 5674 5673 5671 5670 5668 5667 5665 5663 5662 5661 5660
5707 5696 5674 5664 5661 5668 5683 5679 5699 5719 5724 5724 5723 5721 5719 5717 5715 5713 5712 5710 5708 5706 5704 5702 5700 5698 5696 5693 5691 5689 5687 5685 5682 5680 5678 5676 5674 5674 5673 5671 5669 5668 5666 5665 5663 5661 5660 5659 5657
5700 5692 5693 5674 5670 5664 5671 5684 5703 5718 5718 5719 5718 5717 5715 5714 5712 5711 5709 5706 5705 5703 5701 5700 5697 5695 5693 5691 5689 5687 5685 5683 5680 5678 5677 5675 5674 5673 5672 5670 5668 5666 5664 5663 5661 5659 5657 5656 5655
5709 5694 5678 5669 5659 5654 5666 5675 5684 5704 5708 5712 5712 5711 5711 5711 5709 5707 5705 5703 5701 5700 5698 5696 5694 5692 5690 5688 5686 5685 5682 5681 5678 5676 5674 5673 5672 5671 5669 5668 5666 5664 5662 5660 5658 5657 5655 5654 5652
5695 5689 5677 5664 5662 5652 5652 5670 5701 5704 5708 5707 5708 5709 5708 5707 5705 5704 5701 5699 5698 5696 5694 5691 5690 5688 5686 5684 5682 5680 5679 5678 5676 5674 5672 5671 5670 5669 5667 5666 5664 5662 5660 5658 5656 5654 5653 5651 5650
5698 5691 5676 5665 5660 5653 5651 5668 5708 5706 5707 5707 5706 5706 5706 5705 5703 5701 5698 5695 5693 5691 5689 5687 5685 5684 5682 5680 5678 5677 5675 5673 5671 5670 5669 5668 5667 5667 5665 5663 5661 5660 5658 5656 5654 5652 5650 5648 5647